Regional Weather Roundup
Issued by NWS

Home | Current Version | Previous Version | Text Only | Print | Product List | Glossary On
Versions: 1 2 3 4 5 6 7 8 9 10 11 12 13 14 15 16 17 18 19 20 21 22 23 24 25 26 27 28 29 30 31 32 33 34 35 36 37 38 39 40 41 42 43 44 45
000
ASPQ40 PGUM 220812
RWRPQ
WEATHER ROUNDUP FOR THE MARIANAS AND MICRONESIA
NATIONAL WEATHER SERVICE TIYAN GU
600 PM CHST WED OCT 22 2014

GUZ001>004-220900-
MARIANA ISLANDS-

CITY           SKY/WX    TMP DP  RH WIND       PRES   REMARKS
GUAM AIRPORT   CLEAR     82  75  78 E6        29.80S
ANDERSEN AFB   CLEAR     81  75  83 NE7       29.80S
ROTA AIRPORT   PTCLDY    81  75  83 E5        29.80R
TINIAN AP      PTCLDY    81  77  89 E2        29.76R
SAIPAN AP      CLEAR     81  75  83 S3        29.77S

$$

PMZ161-220900-
REPUBLIC OF PALAU-

CITY           SKY/WX    TMP DP  RH WIND       PRES   REMARKS
KOROR AP       MOCLDY    86  77  74 NW5       29.78R HX  97
KOROR WSO      MOCLDY    86  77  74 NW3       29.77R HX  97

$$

PMZ171>174-220900-
FEDERATED STATES OF MICRONESIA-

CITY           SKY/WX    TMP DP  RH WIND       PRES   REMARKS
YAP AIRPORT    LGT RAIN  82  79  89 CALM      29.78R HX  93
CHUUK AP       MOCLDY    82  81  94 CALM      29.80R HX  95
POHNPEI AP     NOT AVBL
POHNPEI WSO    CLOUDY    79  77  94 SE5       29.84R
KOSRAE AP      NOT AVBL

$$

PMZ181-220900-
REPUBLIC OF THE MARSHALL ISLANDS-

CITY           SKY/WX    TMP DP  RH WIND       PRES   REMARKS
KWAJALEIN AP   CLEAR     84  73  70 SE7       29.85R HX  91
MAJURO AP      NOT AVBL
MAJURO WSO     MOCLDY    82  77  83 SE7       29.83R HX  91

$$




USA.gov is the U.S. government's official web portal to all federal, state and local government web resources and services.